Home > Weather > Eisenhüttenstadt > Past weeks

Flag for Germany Weather for the Past 2 Weeks in Eisenhüttenstadt, Brandenburg, Germany

Now
49 °F

Overcast.


Feels Like: 48 °F
Forecast: 46 / 71 °F
Wind: 3 mph from North

Location: Zielona Gora

Current Time: May 5, 2016 at 3:07:58 AM

Latest Report: May 5, 2016 at 2:00 AM


Visibility: 31 mi

Pressure: 30.36 "Hg

Humidity: 60%

Dew Point: 36 °F

Location of EisenhüttenstadtLocation

Historic Weather in Eisenhüttenstadt — Graph

°F

Eisenhüttenstadt Temperature Yesterday

Maximum temperature yesterday: 55 °F (at 3:00 PM)
Minimum temperature yesterday: 46 °F (at 7:00 AM)
Average temperature yesterday: 51 °F

High & Low Weather Summary for the Past Weeks

 TemperatureHumidityPressure
High65 °F (May 3, 6:00 PM)95% (Apr 26, 4:00 PM)30.36 "Hg (Apr 26, 4:00 PM)
Low32 °F (Apr 25, 6:00 AM)28% (Apr 29, 4:00 PM)29.50 "Hg (Apr 26, 1:00 PM)
Average47 °F61%30.02 "Hg
* Reported Apr 20 1:00 AM — May 5 1:00 AM, Eisenhüttenstadt, Weather by CustomWeather, © 2016

Note: Actual official high and low records may vary slightly from our data, if they occured in-between our weather recording intervals... More about our weather records

Advertising

Eisenhüttenstadt Weather History for the Previous 24 Hours

Scroll right to see more
 ConditionsComfort  
Time TempWeatherWind HumidityBarometerVisibility
1:00 AM
Thu, May 5
50 °FOvercast.3 mph56%30.35 "Hg31 mi
12:00 AM50 °FOvercast.3 mph53%30.35 "Hg31 mi
11:00 PM
Wed, May 4
50 °FPassing clouds.3 mph53%30.34 "Hg31 mi
10:00 PM51 °FOvercast.3 mph55%30.34 "Hg31 mi
9:00 PM52 °FOvercast.5 mph53%30.32 "Hg28 mi
8:00 PM53 °FOvercast.2 mph56%30.32 "Hg28 mi
7:00 PM54 °FOvercast.3 mph58%30.30 "Hg28 mi
6:00 PM54 °FSprinkles. Overcast.3 mph61%30.29 "Hg25 mi
5:00 PM53 °FOvercast.3 mph69%30.28 "Hg25 mi
4:00 PM52 °FSprinkles. Overcast.3 mph71%30.29 "Hg19 mi
3:00 PM55 °FOvercast.5 mph60%30.27 "Hg25 mi
2:00 PM54 °FOvercast.5 mph62%30.28 "Hg25 mi
1:00 PM53 °FOvercast.5 mph65%30.26 "Hg25 mi
12:00 PM53 °FOvercast.5 mph63%30.25 "Hg25 mi
11:00 AM52 °FOvercast.5 mph70%30.25 "Hg19 mi
10:00 AM50 °FOvercast.5 mph76%30.24 "Hg16 mi
9:00 AM48 °FOvercast.5 mph86%30.23 "Hg7 mi
8:00 AM46 °FSprinkles. Low clouds.6 mph92%30.22 "Hg7 mi
7:00 AM46 °FLight rain. Low clouds.5 mph93%30.20 "Hg9 mi
6:00 AM47 °FLow clouds.6 mph91%30.18 "Hg12 mi
5:00 AM47 °FOvercast.6 mph90%30.16 "Hg14 mi
4:00 AM48 °FOvercast.6 mph91%30.14 "Hg16 mi
3:00 AM48 °FOvercast.5 mph92%30.12 "Hg16 mi
Weather by CustomWeather, © 2016

See weather overviewHow to use our weather pages